GW0472 Weather Reports


time (UTC)temp
F
wind
direction
speed
knots
gust
knots
rain 1hr
in
rain 24hr
in
rain mn
in
humidity
%
barometer
mb
20260506002658 76 214 4.3 9.6 0.00 0.00 0.00 38 1007.3
20260506002155 76 173 6.1 8.7 0.00 0.00 0.00 38 1007.5
20260506001650 76 240 6.1 8.7 0.00 0.00 0.00 37 1007.2
20260506001148 76 209 7.8 11.3 0.00 0.00 0.00 37 1007.2
20260506000645 77 234 6.1 11.3 0.00 0.00 0.00 37 1007.2
20260506000142 76 227 7.0 13.9 0.00 0.00 0.00 37 1007.2
20260505235641 77 207 8.7 9.6 0.00 0.00 0.00 36 1007.1
20260505235138 77 147 13.9 19.1 0.00 0.00 0.00 36 1006.9
20260505234634 77 220 4.3 17.4 0.00 0.00 0.00 36 1007.2
20260505234131 78 167 7.8 13.9 0.00 0.00 0.00 36 1007.2
20260505233628 78 191 4.3 13.9 0.00 0.00 0.00 36 1007.1
20260505233126 78 221 9.6 17.4 0.00 0.00 0.00 35 1007.2
20260505232623 78 185 8.7 18.2 0.00 0.00 0.00 36 1007.1
20260505232121 78 202 5.2 12.2 0.00 0.00 0.00 37 1007.0
20260505231617 78 192 8.7 15.6 0.00 0.00 0.00 36 1007.0
20260505231116 79 195 4.3 13.0 0.00 0.00 0.00 37 1007.0
20260505230614 79 191 6.1 9.6 0.00 0.00 0.00 37 1007.0
20260505230110 79 196 6.1 17.4 0.00 0.00 0.00 35 1007.0
20260505225606 79 242 5.2 13.9 0.00 0.00 0.00 36 1007.0
20260505225102 79 218 5.2 13.0 0.00 0.00 0.00 37 1006.9
20260505224559 79 194 7.0 13.0 0.00 0.00 0.00 36 1006.9
20260505224057 79 266 7.0 9.6 0.00 0.00 0.00 37 1006.6
20260505223554 79 204 5.2 13.0 0.00 0.00 0.00 38 1007.0
20260505223050 79 244 7.0 12.2 0.00 0.00 0.00 36 1007.2
20260505222546 79 211 5.2 7.8 0.00 0.00 0.00 37 1007.2
20260505222043 79 197 4.3 8.7 0.00 0.00 0.00 37 1007.1
20260505221540 79 205 4.3 13.9 0.00 0.00 0.00 36 1006.7
20260505221036 79 102 2.6 9.6 0.00 0.00 0.00 36 1007.4
20260505220533 79 192 7.0 11.3 0.00 0.00 0.00 36 1007.2
20260505220031 79 219 7.0 15.6 0.00 0.00 0.00 36 1006.9
20260505215529 79 218 14.8 20.0 0.00 0.00 0.00 35 1006.7
20260505215027 80 203 4.3 11.3 0.00 0.00 0.00 36 1007.1
20260505214525 79 187 5.2 15.6 0.00 0.00 0.00 36 1006.9
20260505214021 80 240 11.3 15.6 0.00 0.00 0.00 35 1007.1
20260505213519 80 182 9.6 13.9 0.00 0.00 0.00 36 1006.7
20260505213015 80 194 13.0 18.2 0.00 0.00 0.00 35 1006.9
20260505212512 80 192 12.2 15.6 0.00 0.00 0.00 36 1007.1
20260505212009 81 199 8.7 13.9 0.00 0.00 0.00 36 1006.7
20260505211506 81 198 10.4 17.4 0.00 0.00 0.00 36 1007.0
20260505211003 81 190 8.7 13.9 0.00 0.00 0.00 38 1006.6
20260505210459 81 199 7.8 17.4 0.00 0.00 0.00 38 1006.9
20260505205956 82 244 9.6 20.9 0.00 0.00 0.00 36 1006.9
20260505205455 82 203 11.3 20.9 0.00 0.00 0.00 36 1006.7
20260505204951 82 213 13.0 19.1 0.00 0.00 0.00 37 1006.6
20260505204449 82 201 7.0 13.9 0.00 0.00 0.00 37 1006.9
20260505203946 82 218 7.8 17.4 0.00 0.00 0.00 37 1006.6
20260505203442 82 205 6.1 13.0 0.00 0.00 0.00 37 1006.4
20260505202939 81 186 2.6 7.8 0.00 0.00 0.00 40 1006.9
20260505202435 81 227 7.0 15.6 0.00 0.00 0.00 38 1006.6
20260505201932 82 189 6.1 8.7 0.00 0.00 0.00 38 1006.6
20260505201429 82 152 10.4 15.6 0.00 0.00 0.00 37 1006.9
20260505200927 82 216 13.9 19.1 0.00 0.00 0.00 38 1006.9
20260505200424 82 192 7.0 11.3 0.00 0.00 0.00 40 1006.9
20260505195919 82 200 2.6 9.6 0.00 0.00 0.00 40 1006.9
20260505195417 82 115 7.0 13.0 0.00 0.00 0.00 39 1007.1
20260505194914 82 191 2.6 13.0 0.00 0.00 0.00 39 1007.1
20260505194412 82 191 7.8 15.6 0.00 0.00 0.00 40 1007.2
20260505193911 82 190 6.1 18.2 0.00 0.00 0.00 40 1007.0
20260505193409 81 184 9.6 17.4 0.00 0.00 0.00 40 1007.3
20260505192907 81 212 6.1 14.8 0.00 0.00 0.00 41 1007.2
20260505192405 81 208 10.4 14.8 0.00 0.00 0.00 39 1007.4
20260505191902 81 206 5.2 19.1 0.00 0.00 0.00 41 1007.3
20260505191401 82 203 3.5 7.0 0.00 0.00 0.00 43 1007.5
20260505190857 81 190 7.8 9.6 0.00 0.00 0.00 40 1007.6
20260505190353 81 247 2.6 11.3 0.00 0.00 0.00 40 1007.6
20260505185848 81 189 9.6 13.0 0.00 0.00 0.00 38 1007.8
20260505185345 81 230 4.3 14.8 0.00 0.00 0.00 40 1007.8
20260505184841 82 203 7.0 9.6 0.00 0.00 0.00 39 1007.7
20260505184338 81 190 6.1 9.6 0.00 0.00 0.00 39 1007.9
20260505183835 80 177 2.6 11.3 0.00 0.00 0.00 43 1008.1
20260505183332 81 277 12.2 17.4 0.00 0.00 0.00 38 1008.1
20260505182829 80 219 7.8 15.6 0.00 0.00 0.00 42 1008.1
20260505182326 81 204 9.6 12.2 0.00 0.00 0.00 41 1008.4
20260505181822 80 218 2.6 14.8 0.00 0.00 0.00 42 1008.1
20260505181320 80 173 7.8 9.6 0.00 0.00 0.00 40 1008.2
20260505180816 80 221 8.7 13.9 0.00 0.00 0.00 43 1008.4
20260505180313 81 200 5.2 13.0 0.00 0.00 0.00 42 1008.4
20260505175809 80 205 7.0 20.0 0.00 0.00 0.00 41 1008.4
20260505175306 80 212 3.5 13.0 0.00 0.00 0.00 43 1008.2
20260505174802 80 221 10.4 13.0 0.00 0.00 0.00 42 1008.5
20260505174300 80 230 8.7 18.2 0.00 0.00 0.00 42 1008.6
20260505173755 80 219 7.0 13.9 0.00 0.00 0.00 42 1008.6
20260505173252 80 152 6.1 13.9 0.00 0.00 0.00 44 1008.6
20260505172749 80 212 7.8 12.2 0.00 0.00 0.00 43 1008.7
20260505172246 79 191 9.6 13.0 0.00 0.00 0.00 41 1008.6
20260505171746 79 204 6.1 20.0 0.00 0.00 0.00 42 1008.7
20260505171243 79 193 2.6 13.0 0.00 0.00 0.00 44 1008.4
20260505170740 79 187 7.8 15.6 0.00 0.00 0.00 42 1008.6
20260505170237 79 341 9.6 13.0 0.00 0.00 0.00 42 1008.9
20260505165732 79 261 7.8 11.3 0.00 0.00 0.00 41 1008.9
20260505165229 79 209 3.5 17.4 0.00 0.00 0.00 42 1009.2
20260505164724 79 218 10.4 13.0 0.00 0.00 0.00 42 1009.0
20260505164222 80 191 7.0 11.3 0.00 0.00 0.00 44 1009.4
20260505163720 78 288 3.5 8.7 0.00 0.00 0.00 43 1009.5
20260505163218 78 206 10.4 13.0 0.00 0.00 0.00 42 1009.5
20260505162715 79 193 10.4 13.0 0.00 0.00 0.00 42 1009.6
20260505162212 79 213 4.3 13.0 0.00 0.00 0.00 44 1009.7
20260505161709 79 160 4.3 8.7 0.00 0.00 0.00 44 1009.8
20260505161206 78 229 2.6 8.7 0.00 0.00 0.00 43 1009.8
20260505160704 79 252 8.7 11.3 0.00 0.00 0.00 42 1010.1
20260505160201 78 209 8.7 11.3 0.00 0.00 0.00 43 1009.7
20260505153140 77 242 2.6 7.8 0.00 0.00 0.00 47 1009.9
20260505152637 78 206 5.2 7.0 0.00 0.00 0.00 47 1010.1
20260505152133 77 276 5.2 11.3 0.00 0.00 0.00 49 1009.8
20260505151629 77 160 3.5 8.7 0.00 0.00 0.00 49 1010.1
20260505151126 76 232 6.1 14.8 0.00 0.00 0.00 50 1010.1
20260505150622 76 217 7.0 9.6 0.00 0.00 0.00 50 1009.9
20260505150119 76 211 6.1 8.7 0.00 0.00 0.00 50 1009.7
20260505140547 71 220 3.5 7.0 0.00 0.00 0.00 61 1010.0
20260505125001 64 166 2.6 5.2 0.00 0.00 0.00 70 1010.7
20260505124457 64 202 1.7 5.2 0.00 0.00 0.00 71 1010.8
20260505123954 63 178 3.5 4.3 0.00 0.00 0.00 72 1011.1
20260505123450 62 35 3.5 6.1 0.00 0.00 0.00 72 1010.9
20260505122946 62 223 1.7 4.3 0.00 0.00 0.00 75 1010.8
20260505122444 61 171 2.6 5.2 0.00 0.00 0.00 75 1011.0
20260505121940 61 234 1.7 5.2 0.00 0.00 0.00 76 1011.0
20260505121437 60 202 5.2 8.7 0.00 0.00 0.00 75 1010.8
20260505120933 60 196 4.3 7.0 0.00 0.00 0.00 75 1010.9
20260505120430 60 178 3.5 6.1 0.00 0.00 0.00 77 1010.9
20260505115929 60 218 5.2 7.8 0.00 0.00 0.00 76 1010.9
20260505115426 59 188 6.1 7.0 0.00 0.00 0.00 76 1010.9
20260505114924 59 212 5.2 7.0 0.00 0.00 0.00 76 1010.8
20260505114420 59 192 2.6 6.1 0.00 0.00 0.00 77 1010.8
20260505113916 59 188 4.3 6.1 0.00 0.00 0.00 77 1010.8
20260505113413 59 210 3.5 6.1 0.00 0.00 0.00 78 1010.7
20260505112909 59 188 4.3 9.6 0.00 0.00 0.00 77 1010.6
20260505112407 58 162 4.3 6.1 0.00 0.00 0.00 78 1010.6
20260505111902 58 181 4.3 8.7 0.00 0.00 0.00 77 1010.6
20260505111357 58 178 0.9 8.7 0.00 0.00 0.00 78 1010.2
20260505110854 58 210 4.3 7.0 0.00 0.00 0.00 78 1010.6
20260505110351 58 213 3.5 7.8 0.00 0.00 0.00 79 1010.5
20260505101821 57 218 2.6 4.3 0.00 0.00 0.00 81 1009.8
20260505101316 57 198 2.6 5.2 0.00 0.00 0.00 81 1010.2
20260505100812 57 215 2.6 6.1 0.00 0.00 0.00 80 1009.4
20260505100309 57 164 4.3 5.2 0.00 0.00 0.00 80 1010.0
20260505095805 58 200 1.7 7.0 0.00 0.00 0.00 79 1009.8
20260505095304 58 177 3.5 6.1 0.00 0.00 0.00 79 1009.7
20260505094758 58 176 6.1 7.8 0.00 0.00 0.00 79 1009.8
20260505094255 58 189 5.2 7.0 0.00 0.00 0.00 79 1009.5
20260505093751 58 209 3.5 6.1 0.00 0.00 0.00 78 1009.6
20260505093249 58 181 4.3 6.1 0.00 0.00 0.00 79 1009.5
20260505092745 58 211 4.3 7.0 0.00 0.00 0.00 79 1009.6
20260505092244 58 206 3.5 7.0 0.00 0.00 0.00 80 1009.8
20260505091741 58 179 3.5 5.2 0.00 0.00 0.00 80 1009.4
20260505091239 58 205 5.2 6.1 0.00 0.00 0.00 79 1009.3
20260505090736 58 207 5.2 7.8 0.00 0.00 0.00 78 1009.7
20260505090235 58 200 1.7 7.8 0.00 0.00 0.00 79 1009.6
20260505085732 58 207 2.6 9.6 0.00 0.00 0.00 78 1009.4
20260505085230 59 199 5.2 7.0 0.00 0.00 0.00 78 1009.4
20260505084727 59 212 3.5 11.3 0.00 0.00 0.00 77 1009.5
20260505084226 59 207 3.5 6.1 0.00 0.00 0.00 77 1009.4
20260505083722 59 225 4.3 6.1 0.00 0.00 0.00 77 1009.2
20260505083219 59 212 1.7 6.1 0.00 0.00 0.00 77 1009.3
20260505082715 59 220 3.5 5.2 0.00 0.00 0.00 77 1009.0
20260505082213 59 239 1.7 4.3 0.00 0.00 0.00 76 1009.2
20260505081708 59 227 2.6 8.7 0.00 0.00 0.00 76 1008.9
20260505081206 59 195 2.6 6.1 0.00 0.00 0.00 76 1009.3
20260505080703 60 197 2.6 5.2 0.00 0.00 0.00 75 1009.3
20260505080158 59 191 4.3 6.1 0.00 0.00 0.00 76 1009.2
20260505075654 59 202 3.5 7.0 0.00 0.00 0.00 75 1009.4
20260505075151 59 188 3.5 8.7 0.00 0.00 0.00 75 1009.2
20260505074648 60 187 6.1 7.8 0.00 0.00 0.00 75 1008.9
20260505074145 59 140 4.3 7.0 0.00 0.00 0.00 75 1009.1
20260505073643 60 188 5.2 7.8 0.00 0.00 0.00 74 1009.2
20260505073141 59 185 4.3 7.0 0.00 0.00 0.00 75 1009.1
20260505072636 59 211 2.6 7.0 0.00 0.00 0.00 75 1009.0
20260505072133 59 213 5.2 7.0 0.00 0.00 0.00 76 1009.1
20260505071629 59 200 3.5 4.3 0.00 0.00 0.00 76 1008.8
20260505071127 58 196 1.7 2.6 0.00 0.00 0.00 77 1009.0
20260505070624 59 210 1.7 2.6 0.00 0.00 0.00 76 1008.9
20260505070120 59 209 1.7 2.6 0.00 0.00 0.00 76 1008.9
20260505065616 59 206 1.7 2.6 0.00 0.00 0.00 75 1009.2
20260505065113 59 205 1.7 4.3 0.00 0.00 0.00 75 1009.1
20260505064609 60 224 1.7 5.2 0.00 0.00 0.00 73 1009.0
20260505064108 60 204 2.6 4.3 0.00 0.00 0.00 74 1009.0
20260505063605 60 195 3.5 5.2 0.00 0.00 0.00 73 1009.3
20260505063101 60 210 4.3 7.8 0.00 0.00 0.00 73 1009.2
20260505062557 60 205 2.6 5.2 0.00 0.00 0.00 73 1009.2
20260505062055 60 187 2.6 7.0 0.00 0.00 0.00 72 1009.1
20260505061552 60 191 3.5 7.0 0.00 0.00 0.00 73 1009.1
20260505061050 60 170 4.3 7.0 0.00 0.00 0.00 73 1009.1
20260505060547 60 232 2.6 4.3 0.00 0.00 0.00 74 1009.0
20260505060044 60 191 2.6 5.2 0.00 0.00 0.00 74 1009.0
20260505055539 60 196 3.5 5.2 0.00 0.00 0.00 74 1009.1
20260505055036 60 214 0.9 5.2 0.00 0.00 0.00 73 1009.2
20260505054533 60 212 0.9 4.3 0.00 0.00 0.00 73 1009.1
20260505054032 60 206 1.7 2.6 0.00 0.00 0.00 72 1009.2
20260505053528 61 214 0.9 1.7 0.00 0.00 0.00 72 1009.1
20260505053025 61 202 2.6 4.3 0.00 0.00 0.00 71 1009.2
20260505052522 61 204 3.5 5.2 0.00 0.00 0.00 70 1009.2
20260505052019 61 211 2.6 4.3 0.00 0.00 0.00 71 1009.4
20260505051516 61 224 1.7 5.2 0.00 0.00 0.00 71 1009.2
20260505051014 61 190 2.6 4.3 0.00 0.00 0.00 71 1009.2
20260505050512 61 200 1.7 4.3 0.00 0.00 0.00 71 1009.1
20260505041440 63 235 1.7 2.6 0.00 0.00 0.00 66 1009.0
20260505040937 64 189 2.6 4.3 0.00 0.00 0.00 65 1008.8
20260505040434 64 218 1.7 4.3 0.00 0.00 0.00 65 1008.8
20260505035931 64 209 2.6 5.2 0.00 0.00 0.00 64 1008.7
20260505035427 64 210 2.6 7.8 0.00 0.00 0.00 63 1008.9
20260505034925 65 234 2.6 6.1 0.00 0.00 0.00 63 1008.5
20260505034421 65 212 2.6 5.2 0.00 0.00 0.00 63 1009.0
20260505033918 65 199 0.0 6.1 0.00 0.00 0.00 63 1008.7
20260505033414 66 199 2.6 5.2 0.00 0.00 0.00 62 1008.7
20260505032913 66 188 3.5 6.1 0.00 0.00 0.00 61 1008.8
20260505032409 66 204 5.2 7.8 0.00 0.00 0.00 60 1008.9
20260505031906 66 235 2.6 7.0 0.00 0.00 0.00 60 1008.9
20260505031403 66 205 3.5 6.1 0.00 0.00 0.00 60 1008.7
20260505030900 66 210 3.5 7.0 0.00 0.00 0.00 60 1008.8
20260505030356 66 200 3.5 7.0 0.00 0.00 0.00 59 1008.9
20260505025851 66 214 3.5 7.8 0.00 0.00 0.00 59 1009.0
20260505025349 66 223 5.2 7.0 0.00 0.00 0.00 59 1008.9
20260505024848 66 207 5.2 6.1 0.00 0.00 0.00 59 1008.9
20260505024345 67 187 3.5 7.0 0.00 0.00 0.00 59 1008.9
20260505023842 66 242 3.5 6.1 0.00 0.00 0.00 59 1009.0
20260505023339 66 223 3.5 6.1 0.00 0.00 0.00 59 1008.9
20260505022836 67 189 0.9 7.0 0.00 0.00 0.00 58 1008.9
20260505022333 66 208 4.3 8.7 0.00 0.00 0.00 58 1009.0
20260505021830 66 257 2.6 5.2 0.00 0.00 0.00 58 1008.8
20260505021327 66 177 4.3 5.2 0.00 0.00 0.00 57 1008.9
20260505020822 67 225 1.7 4.3 0.00 0.00 0.00 57 1009.1
20260505020318 67 234 1.7 4.3 0.00 0.00 0.00 57 1008.8
20260505015815 68 255 1.7 1.7 0.00 0.00 0.00 56 1008.8
20260505015313 68 216 1.7 7.0 0.00 0.00 0.00 55 1008.8
20260505014810 68 202 2.6 4.3 0.00 0.00 0.00 55 1008.6
20260505014307 68 221 2.6 6.1 0.00 0.00 0.00 54 1008.8
20260505013803 68 236 3.5 5.2 0.00 0.00 0.00 54 1008.5
20260505013300 68 237 2.6 5.2 0.00 0.00 0.00 53 1008.6
20260505012758 69 199 2.6 4.3 0.00 0.00 0.00 53 1008.8
20260505012256 69 252 0.9 2.6 0.00 0.00 0.00 53 1008.7
20260505011752 69 244 1.7 4.3 0.00 0.00 0.00 52 1008.6
20260505011249 69 210 2.6 7.0 0.00 0.00 0.00 51 1008.3
20260505010744 70 227 2.6 5.2 0.00 0.00 0.00 51 1008.3
20260505010241 69 225 4.3 7.0 0.00 0.00 0.00 51 1008.0
20260505005737 69 201 2.6 8.7 0.00 0.00 0.00 50 1007.9
20260505005234 69 195 3.5 5.2 0.00 0.00 0.00 51 1008.0
20260505004731 70 174 1.7 7.0 0.00 0.00 0.00 50 1007.9
20260505004228 70 211 4.3 7.8 0.00 0.00 0.00 49 1007.8
20260505003725 70 187 5.2 8.7 0.00 0.00 0.00 49 1007.8
20260505003223 70 213 3.5 6.1 0.00 0.00 0.00 49 1008.0
20260505002719 70 180 4.3 8.7 0.00 0.00 0.00 48 1007.9